EW2099 Weather Reports


Display with metric or nautical units.
time (UTC)temp
F
wind
direction
speed
MPH
gust
MPH
rain 1hr
in
rain 24hr
in
rain mn
in
humidity
%
barometer
mb
20260505021548 52 44 4.0 13.0 0.00 0.01 0.00 69 1012.3
20260505020051 52 33 3.0 10.0 0.00 0.01 0.00 69 1012.3
20260505014544 52 40 6.0 13.0 0.00 0.01 0.00 69 1012.4
20260505013041 52 26 4.0 12.0 0.00 0.01 0.00 70 1012.6
20260505011537 52 33 5.0 13.0 0.00 0.01 0.00 70 1012.8
20260505010040 51 11 4.0 11.0 0.00 0.01 0.00 71 1013.0
20260505004543 52 76 6.0 13.0 0.00 0.01 0.00 71 1013.2
20260505003032 52 32 4.0 11.0 0.00 0.01 0.00 71 1013.3
20260505001531 52 8 6.0 13.0 0.00 0.01 0.00 71 1013.3
20260505000031 52 63 6.0 14.0 0.00 0.01 0.00 71 1013.4
20260504234533 52 52 5.0 16.0 0.00 0.01 0.00 71 1013.3
20260504233022 52 359 5.0 13.0 0.00 0.01 0.00 71 1013.4
20260504231532 51 30 4.0 11.0 0.00 0.01 0.00 71 1013.5
20260504230014 51 46 4.0 15.0 0.00 0.01 0.00 72 1013.6
20260504224515 51 30 7.0 16.0 0.00 0.01 0.00 72 1013.6
20260504223010 51 58 5.0 15.0 0.00 0.01 0.00 71 1013.7
20260504221507 51 21 6.0 11.0 0.00 0.01 0.00 71 1013.9
20260504220003 52 27 5.0 13.0 0.00 0.01 0.01 71 1014.0
20260504214604 52 30 6.0 13.0 0.00 0.01 0.01 72 1014.1
20260504213105 51 41 5.0 11.0 0.00 0.01 0.01 72 1014.3
20260504211605 52 11 7.0 13.0 0.00 0.01 0.01 72 1014.4
20260504210104 52 15 5.0 11.0 0.00 0.01 0.01 72 1014.4
20260504204637 51 36 5.0 12.0 0.00 0.01 0.01 72 1014.5
20260504203055 52 355 7.0 12.0 0.00 0.01 0.01 72 1014.5
20260504201552 52 7 5.0 12.0 0.00 0.01 0.01 71 1014.4
20260504200055 53 24 5.0 12.0 0.00 0.01 0.01 71 1014.4
20260504194552 53 72 6.0 12.0 0.00 0.01 0.01 71 1014.0
20260504193048 53 31 6.0 13.0 0.00 0.01 0.01 71 1013.9
20260504191547 53 41 5.0 12.0 0.00 0.01 0.01 71 1013.7
20260504190055 53 66 4.0 12.0 0.00 0.01 0.01 72 1013.7
20260504184600 53 40 1.0 13.0 0.00 0.01 0.01 72 1013.6
20260504183053 53 40 7.0 14.0 0.00 0.01 0.01 72 1013.6
20260504181544 53 6 6.0 14.0 0.00 0.01 0.01 71 1013.5
20260504180043 53 65 5.0 12.0 0.00 0.01 0.01 72 1013.7
20260504174542 53 21 7.0 13.0 0.00 0.01 0.01 71 1013.8
20260504173041 53 33 6.0 15.0 0.00 0.01 0.01 71 1013.6
20260504171545 54 36 4.0 12.0 0.00 0.01 0.01 72 1013.6
20260504081501 56 243 1.0 4.0 0.00 0.21 0.01 74 1013.7
20260504044543 51 278 0.0 1.0 0.00 0.26 0.01 76 1011.9
20260504043041 51 231 0.0 1.0 0.00 0.26 0.01 76 1011.8
20260504041540 51 261 0.0 1.0 0.00 0.26 0.01 76 1011.8
20260504040039 51 260 0.0 0.0 0.00 0.26 0.01 76 1011.9
20260504034541 51 260 0.0 1.0 0.00 0.26 0.01 76 1011.9
20260504033035 52 236 0.0 1.0 0.01 0.26 0.01 76 1011.9
20260504031534 52 251 0.0 3.0 0.01 0.26 0.01 77 1011.9
20260504030039 52 250 0.0 1.0 0.01 0.26 0.01 77 1011.9
20260504024531 53 274 0.0 2.0 0.01 0.26 0.01 77 1011.9
20260504023031 53 246 0.0 0.0 0.00 0.25 0.00 77 1011.8